Lapse_Rate
4.2 4.2 4.2 4.2 4.3 4.4 4.5 4.7 4.8 5.0 5.1 5.2 5.2 5.3 5.4 5.5 5.5 5.6 5.7 5.7 5.8 5.7 5.7 5.6 5.6 5.6 5.7 5.8 5.9 5.9 5.7 5.8 5.5 5.3 5.3 5.5 5.5 5.5 5.1 4.7 4.8 4.8 4.7
4.3 4.1 4.1 4.1 4.1 4.2 4.4 4.6 4.7 4.8 4.8 5.0 5.2 5.3 5.3 5.3 5.3 5.4 5.4 5.4 5.4 5.4 5.5 5.6 5.6 5.5 5.6 5.9 5.9 5.8 6.1 5.8 5.8 6.0 5.6 5.3 5.3 5.3 5.2 5.0 5.0 4.8 4.9
4.2 4.1 3.9 3.8 3.8 3.9 4.1 4.3 4.4 4.6 4.8 4.8 4.8 5.0 5.1 5.2 5.2 5.1 5.1 5.2 5.3 5.3 5.2 5.1 5.3 5.4 5.4 5.5 5.7 5.8 5.8 5.8 5.7 5.9 5.7 5.7 5.3 5.3 5.2 5.2 5.2 5.2 5.2
4.2 4.1 4.0 3.9 4.1 4.3 4.4 4.4 4.4 4.4 4.5 4.6 4.8 4.8 4.9 5.0 5.1 5.0 4.9 5.0 4.9 4.9 5.0 5.1 5.0 5.0 5.0 5.1 5.3 5.3 5.5 5.6 5.7 5.7 5.7 5.6 5.6 5.6 5.7 5.7 5.5 5.7 5.5
4.5 4.5 4.2 4.1 4.2 4.1 4.2 4.2 4.2 4.3 4.4 4.6 4.6 4.8 4.9 4.8 4.8 4.8 4.7 4.8 4.8 4.8 4.8 4.8 4.9 5.0 5.0 5.0 4.9 5.0 5.3 5.2 5.3 5.3 5.7 5.8 5.8 5.8 5.9 6.1 6.2 6.0 5.6
4.7 4.5 3.9 4.0 4.0 4.0 4.2 4.2 4.1 4.2 4.4 4.7 4.8 4.8 4.9 4.8 4.7 4.8 4.6 4.6 4.7 4.8 4.7 4.7 4.7 4.8 4.8 4.9 4.9 4.8 4.9 5.4 5.4 5.2 5.1 5.5 5.6 5.3 5.3 5.5 5.7 5.9 6.0
4.5 4.4 3.9 3.8 3.9 4.0 4.0 4.0 4.1 4.2 4.2 4.7 4.9 5.2 5.3 4.9 4.7 4.8 4.7 4.6 4.6 4.7 4.7 4.7 4.6 4.6 4.6 4.6 4.8 5.1 5.2 5.2 5.2 5.3 5.6 5.4 5.7 5.8 5.7 5.5 5.5 5.6 5.9
4.4 4.3 4.0 3.9 3.9 4.0 4.0 4.0 4.0 4.1 4.3 4.6 4.9 5.0 4.6 4.9 5.0 4.8 4.8 4.8 4.7 4.8 4.7 4.6 4.5 4.4 4.4 4.5 4.9 5.5 5.5 5.3 5.2 5.3 5.5 5.8 5.7 5.6 5.7 5.8 5.9 5.8 5.6
4.3 4.2 4.1 3.9 3.9 4.0 4.1 4.1 4.1 4.1 4.4 4.5 5.0 5.0 4.7 4.6 4.8 5.0 4.8 4.9 4.7 4.8 4.7 4.5 4.5 4.4 4.2 4.3 4.9 5.5 5.5 5.3 5.5 5.8 5.9 5.8 5.6 5.6 5.4 5.6 5.6 5.9 5.8
4.5 4.6 4.3 3.9 3.9 4.1 4.1 4.3 4.4 4.3 4.5 4.7 4.8 4.8 4.8 4.9 4.5 4.8 4.9 4.9 4.7 4.7 4.5 4.4 4.3 4.4 4.7 5.1 5.5 5.7 5.9 5.9 6.1 6.0 5.6 5.5 5.3 5.2 5.2 5.1 5.2 5.2 5.0
4.8 4.9 4.8 4.5 4.2 4.2 4.1 4.6 4.7 4.2 4.4 4.9 4.9 5.1 4.9 4.8 4.7 4.5 4.8 4.9 4.8 4.7 4.6 4.3 4.3 4.6 5.1 5.4 5.7 5.9 6.1 6.4 6.5 6.4 6.2 5.9 5.6 5.3 5.2 5.0 4.7 4.7 4.7
4.9 5.0 5.0 4.7 4.4 4.1 4.4 4.6 5.2 4.9 4.9 5.1 5.2 5.1 4.9 4.9 4.8 4.7 4.7 4.9 4.7 4.7 4.8 4.6 4.6 5.1 5.6 5.8 6.1 6.3 6.5 6.4 6.3 6.0 6.0 6.1 6.0 5.8 5.7 5.6 5.5 5.2 4.9
4.9 5.0 5.1 5.0 4.5 4.4 4.5 4.8 5.2 4.8 5.1 5.3 5.3 5.2 5.2 5.0 4.7 4.8 4.6 5.0 4.7 4.7 4.7 4.6 4.8 5.4 5.8 6.0 6.1 6.4 6.4 6.2 6.2 6.3 6.3 6.2 6.2 6.2 6.2 6.0 5.8 5.6 5.4
5.1 5.3 5.4 5.2 5.0 5.0 5.1 5.4 5.2 5.2 5.5 5.6 5.5 5.4 5.2 5.1 4.8 4.7 4.6 4.8 4.7 4.8 4.8 4.7 5.1 5.4 5.8 6.2 6.3 6.3 6.3 6.3 6.4 6.5 6.7 6.7 6.6 6.5 6.5 6.2 6.1 5.9 5.7
5.2 5.2 5.3 5.1 5.2 5.4 5.5 5.4 5.3 5.3 5.1 5.7 5.3 5.3 5.1 5.0 5.0 4.8 4.7 4.7 4.7 4.9 5.1 5.2 5.5 5.8 6.2 6.2 6.1 6.3 6.5 6.5 6.6 6.7 6.9 7.0 6.9 6.9 6.7 6.6 6.3 6.1 5.8
5.8 5.7 5.4 5.2 5.2 5.4 5.4 5.5 5.6 5.3 5.5 5.7 5.1 5.0 4.7 4.8 5.0 4.9 4.8 4.7 4.8 4.9 5.3 5.6 5.7 6.2 6.2 6.1 6.2 6.5 6.5 6.4 6.3 6.3 6.4 6.3 6.3 6.4 6.4 6.3 6.2 6.2 6.3
6.1 5.8 5.5 5.3 5.5 5.6 5.6 5.6 5.8 5.5 5.8 5.3 5.1 4.6 4.6 4.8 4.8 4.9 4.9 4.9 4.8 5.1 5.4 5.6 6.0 6.2 6.1 6.2 6.6 6.5 6.4 6.1 6.0 6.0 6.1 6.1 6.2 6.3 6.4 6.3 6.2 6.3 6.4
5.7 5.4 5.5 5.5 5.5 5.7 5.7 5.7 6.0 5.0 5.6 5.1 4.6 4.6 4.6 4.7 4.7 4.8 4.9 4.9 4.9 5.2 5.7 5.9 6.1 6.1 6.0 6.5 6.6 6.4 6.2 6.1 6.1 6.2 6.1 6.1 6.1 6.1 6.3 6.3 6.4 6.5 6.5
5.5 5.4 5.4 5.5 5.6 5.5 5.4 5.4 5.7 4.7 4.9 4.5 4.2 4.4 4.6 4.6 4.6 4.8 5.0 5.0 5.2 5.3 5.6 6.0 6.1 6.0 6.2 6.5 6.5 6.4 6.2 6.1 6.1 6.1 6.1 6.1 6.1 6.1 6.2 6.3 6.6 6.7 6.9
5.8 5.7 5.8 5.6 5.6 5.6 5.6 5.6 5.4 4.8 4.3 4.3 4.3 4.3 4.5 4.6 4.5 4.7 4.8 5.1 5.4 5.6 5.9 6.1 6.0 6.0 6.4 6.5 6.4 6.3 6.2 6.0 6.0 6.0 6.0 5.9 6.0 6.1 6.3 6.4 6.5 6.9 6.9
6.0 5.8 5.8 5.8 5.8 5.8 5.7 5.4 5.0 4.9 4.3 4.5 4.5 4.4 4.4 4.6 4.5 4.7 4.8 5.1 5.3 5.6 6.1 6.0 6.0 6.0 6.3 6.3 6.3 6.4 6.4 6.2 6.1 6.0 5.9 5.9 5.9 5.8 6.0 6.3 6.4 6.5 6.7
6.2 6.2 6.1 5.8 5.8 5.6 5.3 5.1 4.8 4.4 4.4 4.1 4.3 4.3 4.2 4.7 4.7 4.8 4.9 5.0 5.2 5.7 6.1 6.1 6.1 6.0 6.2 6.3 6.3 6.4 6.4 6.2 6.0 5.8 5.7 5.7 5.8 5.7 5.8 5.9 6.0 6.1 6.2
6.2 6.2 6.1 6.1 5.8 5.7 5.6 5.2 4.9 4.4 4.4 3.9 4.0 4.2 4.3 4.7 4.6 4.8 5.0 5.1 5.4 5.8 6.2 6.2 6.2 6.0 6.1 6.1 6.1 6.1 6.1 6.0 5.7 5.5 5.6 5.6 5.6 5.6 5.7 5.8 5.8 5.8 5.8
6.1 6.1 6.2 6.3 6.2 6.0 6.0 5.5 5.3 4.3 4.5 4.2 4.2 4.2 4.4 4.7 4.4 4.7 5.1 5.1 5.6 5.8 6.1 6.2 6.2 6.2 6.1 6.0 5.9 5.9 5.8 5.5 5.4 5.3 5.4 5.5 5.5 5.4 5.5 5.6 5.5 5.4 5.3
6.4 6.5 6.5 6.7 6.5 6.4 6.4 6.1 5.8 5.3 5.1 4.7 4.3 4.3 4.6 4.7 4.4 4.9 5.2 5.3 5.7 5.8 6.0 6.2 6.2 6.2 5.9 5.9 5.8 5.7 5.5 5.3 5.3 5.3 5.3 5.3 5.1 5.2 5.3 5.3 5.3 5.3 5.2
6.8 6.9 7.1 6.9 6.9 6.6 6.5 6.1 5.9 5.9 5.4 4.9 4.5 4.6 4.6 4.6 4.5 5.0 5.3 5.4 5.7 5.8 6.0 6.2 6.2 6.0 6.0 5.9 5.8 5.7 5.5 5.4 5.5 5.5 5.4 5.4 5.3 5.2 5.1 5.2 5.1 5.0 4.9
Wind_Speed
9 8 7 6 5 3 3 1 2 3 4 4 6 6 6 6 7 7 7 8 8 9 10 9 10 9 6 6 6 6 6 6 4 3 4 5 6 7 6 7 11 12 13
9 8 8 6 5 5 4 3 2 3 3 4 4 5 6 6 6 6 7 7 7 8 8 8 9 7 9 8 5 6 5 4 2 4 4 5 4 8 8 9 7 12 12
9 9 8 7 7 6 5 4 3 3 2 2 3 4 5 5 5 5 5 6 6 6 7 7 7 8 8 6 5 5 5 4 4 2 3 3 2 5 6 6 7 9 12
10 10 10 10 10 8 7 6 5 4 3 2 2 3 4 5 4 4 3 3 5 5 5 5 5 6 7 8 6 6 4 4 5 5 4 3 2 4 4 7 8 8 8
11 11 12 10 9 8 7 6 5 4 3 2 2 2 3 4 3 5 3 3 3 4 5 5 6 8 9 8 5 6 4 3 3 3 5 5 6 7 7 6 7 8 8
12 13 10 9 9 9 8 7 5 4 4 3 3 2 3 3 6 8 4 1 3 4 5 6 6 7 8 11 11 11 8 6 6 3 5 6 7 6 4 4 5 6 5
12 12 11 10 10 10 9 7 7 6 4 5 4 3 3 3 6 7 1 1 3 4 6 6 5 4 6 7 10 11 10 12 10 8 8 8 8 8 7 8 6 4 6
11 11 11 11 10 9 9 9 7 5 6 5 5 4 5 4 5 6 4 1 3 5 6 6 6 6 6 9 9 6 7 7 8 6 8 8 8 9 9 9 7 6 6
10 11 11 12 11 10 10 9 6 5 5 5 4 5 5 6 7 6 5 2 4 6 6 6 6 7 11 14 9 8 9 8 9 13 15 15 13 14 12 2 5 6 7
10 10 9 10 11 11 10 8 5 4 6 5 5 5 7 6 8 7 6 3 5 5 6 6 9 11 13 14 8 9 9 10 10 9 8 8 9 9 13 8 7 7 7
6 7 9 10 11 10 8 5 6 6 5 4 5 4 6 6 6 9 8 4 4 5 6 6 6 12 14 14 14 8 9 11 13 7 7 7 8 8 6 5 6 7 7
6 7 9 9 7 7 9 6 5 6 6 6 5 4 5 5 7 9 10 9 9 6 6 6 7 13 14 13 11 15 18 16 6 7 7 7 7 6 5 5 5 6 8
5 7 8 8 7 8 8 8 5 6 5 5 5 4 4 4 4 8 11 9 9 6 6 10 17 14 14 9 13 14 13 6 7 7 8 7 6 6 7 7 6 9 10
7 7 7 8 8 7 6 6 6 6 6 5 5 5 4 4 4 4 5 5 8 7 8 8 10 11 11 11 8 6 5 5 6 7 8 8 8 7 7 7 7 7 8
6 6 7 7 9 7 6 6 6 6 6 5 6 5 5 5 5 7 8 5 4 6 8 4 3 5 6 6 5 5 5 5 6 6 7 8 8 8 8 7 7 8 8
6 6 6 5 5 5 5 5 10 11 12 14 12 8 5 11 11 11 12 13 10 12 6 3 6 6 7 7 6 7 6 8 7 7 8 8 8 8 8 8 8 8 8
9 8 6 7 6 6 5 6 6 7 13 14 13 12 12 12 12 11 12 12 11 8 3 5 6 6 7 7 7 7 8 8 8 8 8 8 8 8 10 8 8 8 9
7 12 6 6 6 5 5 7 5 5 6 5 10 9 9 11 12 11 11 11 4 3 4 5 6 6 7 7 7 8 8 7 7 8 8 8 8 8 8 8 8 8 9
6 5 5 5 5 6 6 6 6 5 5 5 3 6 7 10 11 11 11 4 3 4 5 5 6 7 7 7 8 8 8 8 9 8 8 8 7 7 8 8 9 14 14
8 14 10 5 5 5 6 6 6 6 6 5 5 6 3 3 5 5 5 4 4 5 5 5 6 7 7 7 8 8 8 8 8 8 9 8 8 8 9 9 9 9 9
4 6 13 6 6 7 7 8 7 6 6 5 6 6 10 6 6 6 5 4 4 5 5 5 6 7 7 7 8 8 8 9 9 9 9 9 9 9 9 9 9 9 9
7 7 7 8 7 7 7 6 7 7 7 6 5 6 12 6 4 5 5 4 5 5 5 6 6 7 7 7 8 8 9 10 10 9 10 10 10 10 10 9 9 9 9
8 8 8 7 7 9 7 7 7 7 7 6 6 5 5 5 6 5 5 4 4 5 5 5 7 6 7 7 8 8 9 10 10 10 11 11 11 10 10 10 10 9 9
9 10 9 8 8 8 8 8 7 11 8 6 6 6 5 6 6 6 5 4 4 5 5 5 6 8 8 8 10 12 12 12 13 11 16 12 11 13 10 9 10 11 9
9 9 10 9 9 9 8 9 8 8 7 6 6 6 6 5 5 5 4 4 4 5 6 6 5 8 10 13 13 17 20 27 22 22 10 10 11 14 10 8 9 9 11
10 10 9 8 8 8 8 8 8 8 7 7 6 6 6 5 5 5 4 4 4 4 5 5 7 10 14 14 17 21 26 27 21 21 11 8 8 8 6 8 12 8 11
Wind_Direction
215 213 214 214 208 204 218 241 302 310 336 346 343 344 353 357 6 11 14 17 18 12 12 12 11 8 14 14 22 26 29 18 348 2 23 27 20 32 8 352 3 0 357
211 210 216 213 207 215 221 220 237 305 324 329 339 345 350 350 354 2 8 9 14 17 14 12 7 3 13 12 18 24 34 39 16 356 330 9 351 12 360 4 356 356 353
206 209 213 212 209 218 220 218 225 246 272 313 332 341 340 335 336 345 353 4 7 12 9 8 8 7 8 2 4 8 10 12 18 17 351 3 321 353 348 1 358 350 353
198 204 210 208 208 208 205 205 212 218 246 280 318 320 322 319 312 318 321 346 353 356 3 4 2 3 359 355 355 344 351 358 358 354 346 335 317 336 350 352 350 355 340
199 202 209 205 204 199 198 204 211 216 220 219 262 292 311 308 306 316 273 292 329 335 342 349 350 345 349 348 341 337 303 308 320 328 326 325 332 339 348 346 336 334 334
207 213 202 194 193 196 195 195 201 220 230 230 216 244 284 289 296 307 351 286 311 318 321 327 329 331 336 337 338 340 338 310 286 271 291 294 302 304 296 308 314 333 330
213 211 197 191 193 193 192 191 202 208 211 235 242 236 250 267 287 311 57 26 326 319 316 318 321 328 336 325 321 327 328 326 320 313 288 287 295 298 302 297 291 288 296
217 211 197 189 192 184 185 196 197 198 210 217 230 246 268 266 275 296 304 303 309 307 304 306 303 309 318 315 305 308 311 310 306 304 293 287 282 284 274 274 286 291 288
225 216 202 190 184 180 189 192 195 201 204 214 216 223 236 264 262 271 290 254 288 296 299 299 292 302 310 312 315 310 305 299 297 296 297 296 294 303 308 274 283 295 300
231 223 198 186 181 184 188 183 179 200 205 209 229 228 239 248 267 267 279 265 282 288 290 285 290 304 309 311 309 305 306 306 306 300 297 284 289 289 291 289 286 270 280
216 190 185 185 182 182 170 162 176 194 196 213 241 235 245 245 260 271 270 274 271 277 293 299 297 299 302 308 311 314 299 305 305 301 297 292 288 285 284 283 270 247 244
197 192 185 177 172 167 167 171 176 185 202 207 230 250 254 252 251 263 267 275 277 284 293 294 287 290 298 309 313 309 308 303 302 301 298 294 294 296 295 297 284 253 247
194 194 177 164 167 166 171 179 175 190 214 210 228 233 247 254 251 270 280 283 278 281 290 289 297 310 305 312 303 304 313 304 297 295 293 292 292 287 294 291 282 275 262
200 186 171 171 172 177 185 181 189 192 205 210 222 232 238 245 257 263 269 270 273 275 278 283 283 294 305 298 304 304 295 287 285 286 287 293 294 289 289 288 290 293 289
195 180 182 184 189 188 196 192 198 210 199 202 216 215 224 242 245 247 257 265 248 264 290 288 282 298 303 303 303 297 292 290 288 288 287 289 290 291 290 294 290 289 283
192 189 192 187 187 190 195 210 228 230 225 231 229 215 232 246 257 271 275 279 288 294 291 265 295 299 296 297 296 298 294 289 285 283 282 281 281 281 286 289 282 277 278
201 189 190 191 184 190 193 203 216 224 235 239 241 244 250 258 264 270 275 278 286 293 282 290 284 288 288 287 288 288 286 285 282 273 271 271 272 273 282 277 274 272 270
204 203 188 184 186 181 194 213 203 199 209 225 237 229 242 257 266 267 270 277 271 284 278 279 283 285 285 287 288 286 286 284 278 275 271 265 259 258 267 263 261 259 264
201 207 188 189 186 186 206 211 212 208 206 219 216 230 233 256 264 264 265 264 257 276 272 275 277 280 283 285 284 283 280 281 283 275 269 265 257 250 254 255 257 262 261
201 197 190 187 190 191 204 207 215 217 213 208 219 230 209 234 244 246 244 245 262 265 269 272 277 277 282 286 289 285 281 280 279 275 272 268 263 254 254 257 255 258 259
206 202 200 184 203 213 206 204 206 204 217 213 220 215 214 213 236 238 233 247 257 260 267 274 281 283 288 285 287 281 279 280 279 278 275 270 265 260 252 247 251 251 253
200 199 200 203 194 197 210 211 213 211 205 212 216 214 229 231 224 230 242 248 252 257 266 275 280 282 283 283 286 281 279 280 280 276 272 267 263 259 256 249 246 245 247
193 197 193 198 194 205 215 210 212 214 215 210 201 206 211 221 231 228 235 242 252 262 272 274 276 277 280 280 280 277 279 281 280 279 277 274 271 263 253 248 243 245 243
202 190 201 202 196 199 206 211 208 213 212 212 202 202 211 216 225 225 228 235 252 261 266 270 272 273 285 286 285 281 277 277 281 279 276 273 270 271 260 244 238 240 246
200 202 198 202 202 204 208 212 207 206 209 203 204 200 210 216 221 224 229 237 250 263 272 276 275 278 283 286 285 286 288 296 299 300 294 283 280 281 268 245 241 241 242
202 208 208 198 200 205 201 205 205 204 203 202 200 196 202 206 216 224 230 239 256 263 270 281 280 280 291 293 291 297 306 311 309 310 314 300 294 295 277 252 249 247 250